Regional Weather Roundup
Issued by NWS

Home | Current Version | Previous Version | Graphics & Text | Print | Product List | Glossary Off
Versions: 1 2 3 4 5 6 7 8 9 10 11 12 13 14 15 16 17 18 19 20 21 22 23 24 25 26 27 28 29 30 31 32 33 34 35 36 37 38 39 40 41 42 43 44 45 46 47 48 49 50

000
ASUS43 KTOP 021459
RWRKS

WEATHER ROUNDUP FOR KANSAS
NATIONAL WEATHER SERVICE GOODLAND KS
1000 AM CDT WED SEP 02 2015

NOTE:  "FAIR" INDICATES FEW OR NO CLOUDS BELOW 12,000 FEET WITH NO
SIGNIFICANT WEATHER AND/OR OBSTRUCTIONS TO VISIBILITY.

KSZ001>006-013>018-027>032-041>047-021600-
NORTHWEST KANSAS

CITY           SKY/WX    TMP DP  RH WIND       PRES   REMARKS
GOODLAND       SUNNY     81  54  39 NW8       29.99R
HAYS           SUNNY     82  57  42 S18       29.93F
HILL CITY      SUNNY     82  58  43 SW12      29.93S
RUSSELL        SUNNY     83  60  45 S17       29.93S
$$

KSZ061>065-074>080-084>089-021600-
SOUTHWEST KANSAS

CITY           SKY/WX    TMP DP  RH WIND       PRES   REMARKS
DODGE CITY     SUNNY     80  56  43 S20       29.97F
ELKHART          N/A     80  57  45 SW8         N/A
GARDEN CITY    SUNNY     78  58  49 SW16      29.95F
GREAT BEND     SUNNY     82  61  47 S21       29.94F
LIBERAL        SUNNY     81  55  41 SW18      30.01S
$$

KSZ066>073-081>083-090>101-021600-
SOUTHEAST KANSAS

CITY           SKY/WX    TMP DP  RH WIND       PRES   REMARKS
CHANUTE        SUNNY     79  69  71 S13       30.06S
COFFEYVILLE    SUNNY     78  70  76 S10       30.06S
HUTCHINSON     PTSUNNY   79  64  60 S13       29.99S
NEWTON         MOSUNNY   81  63  54 S17G25    30.03S
PARSONS        SUNNY     78  71  79 S7        30.08R
WICHITA INTL   MOSUNNY   81  66  60 SW15G23   30.01S
WICHITA JABRA  SUNNY     80  67  64 S16       30.01S
WINFIELD       SUNNY     82  67  60 S15G23    30.04S
$$

KSZ007>012-019>026-033>040-048>060-102>105-021600-
NORTHEAST KANSAS

CITY           SKY/WX    TMP DP  RH WIND       PRES   REMARKS
CONCORDIA      SUNNY     81  63  54 S17G26    29.92S
EMPORIA        CLOUDY    76  67  73 S9        30.03R
LAWRENCE       LGT RAIN  71  69  93 SE8       30.05S FOG
MANHATTAN      PTSUNNY   79  66  64 S13G22    29.96S
OLATHE IND     CLOUDY    73  68  84 S3        30.09R
OLATHE EXE     CLOUDY    73  67  81 S6        30.08R
SALINA         SUNNY     84  64  50 S15G28    29.94S
TOPEKA BILLARD LGT RAIN  72  69  90 S9        30.01F
TOPEKA FORBES  CLOUDY    73  68  84 SE10      30.03R
$$



USA.gov is the U.S. government's official web portal to all federal, state and local government web resources and services.